[[{"header":{"parameterUnit":"m.s-1","parameterCategory":1,"la1":30.2991,"la2":30.254,"lo1":-89.0895,"lo2":-89.0444,"dy":0.0017,"dx":0.0017,"nx":28,"ny":28,"refTime":"2024-06-27T09:00:00:Z","depth":0,"parameterNumber":2,"parameterNumberName":"U-component_of_WINDS"},"data":[0,0,0,0,0,0,0,0,0,0,0,0,0,0,0,0,0,0,0,0,0,0,0,0,0,0,0,0,0,0,0,0,0,0,0,0,0,0,0,0,0,0,0,0,0,0,0,0,0,0,0,0,0,0,0,0,0,0,4.3374,4.3375,0,4.3495,4.3496,4.3497,4.3438,4.3435,4.3432,4.3429,4.3552,4.3558,4.3564,0,0,0,0,0,0,0,0,0,0,0,0,0,4.309,4.3095,4.3374,4.3375,4.3377,4.3494,4.3496,4.3498,4.3439,4.3435,4.3431,4.3428,4.355,4.3558,4.3565,0,0,0,0,0,0,0,0,0,0,0,0,0,4.3212,4.3097,4.3374,4.3362,4.3362,4.3494,4.3496,4.3498,4.344,4.3435,4.343,4.3426,4.3548,4.3557,4.3566,4.3717,0,0,4.3594,4.3598,0,0,0,0,0,0,0,0,4.3205,4.3222,4.3362,4.3363,4.3363,4.3447,4.3441,4.3571,4.3441,4.341,4.3429,4.3424,4.3521,4.3532,4.3565,4.3723,4.3728,4.3595,4.3601,4.3605,4.3607,0,0,0,0,0,0,0,4.3197,4.3217,4.3422,4.3364,4.3365,4.3349,4.3362,4.3465,4.349,4.3412,4.3408,4.3423,4.352,4.3556,4.3567,4.373,4.3595,4.3603,4.3609,4.3613,4.4013,4.4018,0,0,0,0,0,0,4.3189,4.321,4.3418,4.3425,4.3271,4.3358,4.3372,4.3425,4.3489,4.3494,4.3427,4.342,4.3543,4.3557,4.3572,4.3749,4.3605,4.3613,4.3619,4.4008,4.4014,4.4019,0,0,0,0,0,0,4.3183,4.3208,4.3413,4.3317,4.3342,4.3368,4.3428,4.3429,4.3465,4.35,4.3504,4.346,4.3539,4.3558,4.368,4.3753,4.3618,4.3626,4.4002,4.401,4.4017,4.4108,0,0,0,0,0,0,4.3175,4.3206,4.3265,4.3318,4.3347,4.3521,4.3432,4.3435,4.3481,4.3473,4.3532,4.3537,4.3537,4.3667,4.3689,4.3763,4.3633,4.3995,4.4005,4.4014,4.4099,4.4118,4.4134,0,0,0,0,0,4.3165,4.3286,4.3268,4.3293,4.3421,4.3525,4.3541,4.354,4.3488,4.3546,4.3568,4.3535,4.3742,4.368,4.3705,4.3782,4.3991,4.4003,4.4014,4.4091,4.4114,4.4134,0,0,0,0,0,0,4.3241,4.3293,4.3273,4.3416,4.3466,4.3515,4.3588,4.3565,4.3631,4.3621,4.3616,4.363,4.3755,4.3781,4.3711,4.393,4.3858,4.3875,4.3908,4.3931,4.3948,4.3938,4.3641,0,0,0,0,0,4.3274,4.3355,4.3397,4.3518,4.3544,4.3562,4.3608,4.3602,4.3654,4.3675,4.3706,4.3757,4.3833,4.3884,4.3956,4.4102,4.4113,4.4168,4.4186,4.42,4.4214,4.429,4.4314,4.4057,4.4057,4.4057,0,0,4.3344,4.3383,4.3434,4.3534,4.3573,4.3655,4.3581,4.3672,4.3733,4.3689,4.3805,4.3829,4.3886,4.402,4.408,4.4045,4.4288,4.4215,4.4226,4.4232,4.4304,4.4329,4.435,4.4065,4.4063,4.4062,0,0,4.3513,4.3551,4.3655,4.3694,4.3753,4.3764,4.3789,4.384,4.3855,4.3971,4.3939,4.401,4.4143,4.4183,4.4221,4.4402,4.4373,4.4426,4.4518,4.4592,4.4612,4.463,4.4692,4.4714,4.444,4.4441,4.4441,0,4.3592,4.3715,4.3711,4.3804,4.3848,4.3811,4.3915,4.3954,4.4033,4.4063,4.4023,4.4186,4.4222,4.4363,4.4406,4.444,4.4466,4.4419,4.461,4.4628,4.4645,4.4703,4.4727,4.4446,4.4446,4.4445,4.4445,0,4.3808,4.3894,4.3971,4.4047,4.4099,4.4198,4.4207,4.426,4.4249,4.4264,4.4381,4.4422,4.4501,4.4534,4.4525,4.4673,4.4649,4.461,4.4537,4.4675,4.473,4.4752,4.4455,4.4453,4.4451,4.4449,0,0,4.4028,4.4099,4.4127,4.416,4.4221,4.4287,4.4382,4.4458,4.4503,4.4558,4.4636,4.4748,4.4711,4.4754,4.4749,4.4814,4.495,4.4766,4.4767,4.4796,4.5112,4.514,4.5166,4.4932,4.4936,4.494,4.5106,0,4.4199,4.4366,4.4363,4.4517,4.4595,4.456,4.4642,4.4688,4.4703,4.477,4.4787,4.4865,4.4812,4.4837,4.49,4.492,4.5013,4.4909,4.5003,4.5006,4.4987,4.5195,4.5225,4.538,4.5128,4.5132,4.5134,0,4.442,4.4482,4.4643,4.4689,4.4722,4.4796,4.4864,4.4929,4.4979,4.4985,4.5032,4.5016,4.5111,4.5037,4.5165,4.5094,4.5132,4.5148,4.5154,4.5161,4.5077,4.5205,4.543,4.5452,4.5169,4.5166,4.5164,0,4.4561,4.4684,4.4796,4.4825,4.4883,4.4935,4.4962,4.5007,4.5052,4.5111,4.5139,4.5209,4.5247,4.5301,4.5303,4.5249,4.5432,4.5359,4.5438,4.5438,4.5477,4.5474,4.5708,4.5506,4.5505,4.5505,4.5504,0,4.4751,4.485,4.4859,4.4928,4.5037,4.5033,4.5141,4.5162,4.5202,4.5273,4.5247,4.5314,4.5314,4.5382,4.5384,4.5488,4.5507,4.5513,4.5512,4.5514,4.5513,4.5537,4.5526,4.5511,4.551,4.5508,4.5507,0,4.4926,4.4937,4.5055,4.5099,4.5112,4.5191,4.5228,4.5292,4.5304,4.5394,4.5414,4.5434,4.5511,4.5519,4.561,4.5612,4.5737,4.5726,4.572,4.5717,4.5795,4.5786,4.6052,4.6085,4.5863,4.5865,4.5867,0,4.5045,4.512,4.5172,4.5217,4.5246,4.532,4.5364,4.5363,4.541,4.5471,4.5527,4.5602,4.5662,4.5787,4.5809,4.5877,4.5866,4.5954,4.5876,4.5874,4.5864,4.5858,4.5864,4.5969,4.5971,4.5973,4.5975,0,4.5254,4.5255,4.5321,4.5388,4.5442,4.5495,4.5545,4.5583,4.5587,4.5641,4.572,4.5766,4.5858,4.5931,4.5998,4.6024,4.6,4.5999,4.6021,4.6022,4.6015,4.6017,4.5758,4.5993,4.5991,4.599,4.5989,4.5988,4.5404,4.5467,4.5513,4.5586,4.5622,4.5668,4.573,4.5749,4.5814,4.5888,4.5883,4.5969,4.6014,4.6101,4.6132,4.6198,4.6168,4.62,4.6208,4.6215,4.6221,4.6006,4.621,4.621,4.6209,4.6209,4.6209,0,4.5609,4.5636,4.5703,4.5772,4.5829,4.5801,4.5853,4.5902,4.5979,4.6023,4.6081,4.617,4.6241,4.6267,4.6336,4.6383,4.6374,4.6401,4.6396,4.6402,4.6246,4.6219,4.6408,4.6408,4.6408,4.6408,4.6407,4.6407,4.5722,4.5828,4.5833,4.5956,4.5981,4.6065,4.6097,4.6138,4.6173,4.6273,4.6331,4.6348,4.6384,4.6454,4.6517,4.6523,4.6548,4.658,4.6581,4.6434,4.6414,4.6394,4.6369,4.6586,4.6587,4.6731,4.6733,4.6734]},{"header":{"parameterUnit":"m.s-1","parameterCategory":1,"la1":30.2991,"la2":30.254,"lo1":-89.0895,"lo2":-89.0444,"dy":0.0017,"dx":0.0017,"nx":28,"ny":28,"refTime":"2024-06-27T09:00:00:Z","depth":0,"parameterNumber":3,"parameterNumberName":"V-component_of_WINDS"},"data":[0,0,0,0,0,0,0,0,0,0,0,0,0,0,0,0,0,0,0,0,0,0,0,0,0,0,0,0,0,0,0,0,0,0,0,0,0,0,0,0,0,0,0,0,0,0,0,0,0,0,0,0,0,0,0,0,0,0,2.5227,2.5228,0,2.5338,2.5339,2.534,2.5332,2.533,2.5329,2.5327,2.5443,2.5447,2.5452,0,0,0,0,0,0,0,0,0,0,0,0,0,2.501,2.5014,2.5227,2.5229,2.523,2.5338,2.5339,2.5341,2.5332,2.533,2.5328,2.5326,2.5441,2.5447,2.5452,0,0,0,0,0,0,0,0,0,0,0,0,0,2.5111,2.5015,2.5227,2.5239,2.5241,2.5337,2.5339,2.5341,2.5333,2.533,2.5328,2.5325,2.5439,2.5446,2.5453,2.5546,0,0,2.5474,2.5477,0,0,0,0,0,0,0,0,2.5105,2.5119,2.5236,2.5238,2.5241,2.5319,2.5305,2.541,2.5333,2.5298,2.5327,2.5324,2.5404,2.5413,2.544,2.5551,2.5556,2.5475,2.5479,2.5482,2.5484,0,0,0,0,0,0,0,2.5098,2.5114,2.5271,2.5237,2.524,2.5239,2.525,2.5325,2.5363,2.5301,2.53,2.5314,2.5404,2.5433,2.5442,2.5558,2.5475,2.5481,2.5485,2.5488,2.5751,2.5753,0,0,0,0,0,0,2.5088,2.5108,2.5268,2.5274,2.5165,2.5245,2.5258,2.5296,2.5363,2.537,2.5316,2.5313,2.5422,2.5434,2.5446,2.5559,2.5482,2.5488,2.5492,2.5748,2.5751,2.5754,0,0,0,0,0,0,2.5084,2.5102,2.5263,2.5191,2.5212,2.5251,2.5294,2.53,2.5328,2.5374,2.5381,2.5337,2.5421,2.5437,2.5521,2.5563,2.5492,2.5498,2.5744,2.5749,2.5753,2.5786,0,0,0,0,0,0,2.5077,2.5101,2.5136,2.5192,2.5215,2.5336,2.5297,2.5304,2.534,2.5337,2.5396,2.5404,2.542,2.551,2.5528,2.5571,2.5503,2.5741,2.5746,2.5751,2.5781,2.5791,2.5799,0,0,0,0,0,2.507,2.5142,2.5138,2.5157,2.526,2.5338,2.5351,2.5368,2.5343,2.5379,2.5408,2.5402,2.5555,2.5519,2.5539,2.5585,2.5738,2.5745,2.5751,2.5777,2.5789,2.5798,0,0,0,0,0,0,2.5091,2.5149,2.5146,2.5238,2.5283,2.5336,2.5383,2.538,2.5434,2.5429,2.5448,2.5462,2.5546,2.5574,2.5533,2.5678,2.5644,2.5654,2.5657,2.5668,2.5677,2.5669,2.5509,0,0,0,0,0,2.5106,2.5164,2.5212,2.5289,2.5311,2.5343,2.5377,2.5386,2.5434,2.5453,2.5488,2.5535,2.5594,2.5633,2.5689,2.5785,2.5797,2.5826,2.5835,2.5842,2.5851,2.5903,2.5916,2.5775,2.5775,2.5775,0,0,2.5139,2.5178,2.5213,2.5294,2.533,2.5389,2.5359,2.5424,2.5468,2.5463,2.5545,2.5572,2.5626,2.5716,2.5757,2.5741,2.5892,2.585,2.5855,2.5861,2.5911,2.5924,2.5936,2.5779,2.5779,2.5778,0,0,2.5229,2.5264,2.5332,2.5368,2.5422,2.5442,2.5458,2.5512,2.553,2.5611,2.5609,2.5662,2.5763,2.5801,2.5834,2.5937,2.5933,2.5955,2.6001,2.6052,2.6063,2.6073,2.611,2.6123,2.5963,2.5963,2.5964,0,2.5263,2.5352,2.5367,2.5432,2.5467,2.5464,2.5533,2.5567,2.5638,2.5662,2.5643,2.5769,2.5805,2.5904,2.5929,2.5955,2.5975,2.5948,2.606,2.607,2.608,2.6115,2.6129,2.5966,2.5966,2.5965,2.5965,0,2.5391,2.5453,2.5501,2.5568,2.5608,2.5675,2.57,2.574,2.5745,2.5767,2.5851,2.5893,2.5958,2.5982,2.5988,2.6082,2.607,2.6055,2.6022,2.6095,2.6129,2.6142,2.5969,2.5968,2.5968,2.5967,0,0,2.5499,2.5572,2.559,2.5619,2.5678,2.5726,2.5792,2.5855,2.5889,2.5937,2.5993,2.6078,2.6064,2.6101,2.6111,2.6155,2.6234,2.6135,2.6137,2.6152,2.634,2.6351,2.6367,2.6231,2.6234,2.6236,2.6335,0,2.5595,2.5711,2.5726,2.583,2.5887,2.5884,2.5942,2.5984,2.6007,2.6059,2.6084,2.6143,2.6121,2.6143,2.6186,2.6215,2.6272,2.6208,2.6284,2.6287,2.6271,2.6384,2.6396,2.6488,2.6349,2.6351,2.6352,0,2.5723,2.5773,2.5882,2.5932,2.5957,2.6008,2.6066,2.6116,2.6164,2.6177,2.6218,2.6222,2.6291,2.6253,2.6348,2.6304,2.6336,2.6355,2.6359,2.6367,2.6325,2.6396,2.6518,2.6532,2.6373,2.6372,2.637,0,2.5791,2.5886,2.5963,2.5989,2.6049,2.6086,2.6113,2.6158,2.6194,2.6245,2.6269,2.6328,2.636,2.6405,2.6425,2.6396,2.6519,2.6483,2.6533,2.6532,2.6559,2.6558,2.6689,2.6579,2.6579,2.6578,2.6578,0,2.5897,2.5964,2.5995,2.6042,2.6117,2.6133,2.6207,2.6232,2.6273,2.6325,2.6327,2.6376,2.6399,2.6453,2.6469,2.6545,2.656,2.6573,2.6576,2.6573,2.6571,2.6595,2.6589,2.6582,2.6581,2.6581,2.658,0,2.5986,2.6009,2.6093,2.6143,2.6157,2.621,2.6253,2.6299,2.632,2.6387,2.6404,2.6437,2.65,2.6524,2.6601,2.6612,2.67,2.6698,2.6684,2.6685,2.6733,2.6728,2.6884,2.6905,2.6781,2.6782,2.6783,0,2.6052,2.6103,2.6158,2.6193,2.6221,2.6277,2.6314,2.6332,2.637,2.6428,2.6467,2.653,2.658,2.6681,2.6713,2.6771,2.6771,2.6822,2.678,2.6775,2.6773,2.6769,2.6775,2.683,2.6831,2.6832,2.6833,0,2.6168,2.6176,2.6229,2.6285,2.6329,2.6374,2.6419,2.6448,2.6472,2.6515,2.6579,2.6618,2.6695,2.6757,2.6818,2.6846,2.6844,2.6846,2.686,2.6858,2.6847,2.6854,2.6705,2.6842,2.6841,2.6841,2.684,2.684,2.6248,2.6293,2.6338,2.6396,2.6431,2.6472,2.6518,2.6544,2.6597,2.6661,2.6669,2.6737,2.6783,2.6863,2.6894,2.6948,2.6935,2.6956,2.6961,2.6966,2.697,2.6838,2.6959,2.6959,2.6959,2.6959,2.6958,0,2.6363,2.6392,2.6445,2.6506,2.6552,2.6545,2.6593,2.6633,2.6692,2.6735,2.6784,2.6857,2.6917,2.6953,2.7013,2.7049,2.705,2.7065,2.7063,2.7069,2.6978,2.696,2.7063,2.7063,2.7063,2.7063,2.7063,2.7063,2.6429,2.6505,2.6518,2.6611,2.664,2.6706,2.6734,2.6772,2.6806,2.6887,2.6936,2.6959,2.6999,2.7062,2.7116,2.7125,2.7148,2.7164,2.7172,2.7086,2.7076,2.7065,2.7048,2.7168,2.7168,2.7258,2.7259,2.7259]}]]